Other Surface Observations
Issued by NWS Charleston, SC

Home | Current Version | Previous Version | Text Only | Print | Product List | Glossary On
Versions: 1 2 3 4 5 6 7 8 9 10 11 12 13 14 15 16 17 18 19 20 21 22 23 24 25 26 27 28 29 30 31 32 33 34 35 36 37 38 39 40 41 42 43 44 45 46 47 48 49 50
000
SXUS52 KCHS 271126
OSOCHS

MARINE OBSERVATIONS
NATIONAL WEATHER SERVICE CHARLESTON SC
600 AM EST FRI FEB 27 2015

...DOWNTOWN CHARLESTON AND HARBOR...

CITY           SKY/WX    TMP DP  RH WIND       PRES   REMARKS
WATERFRONT PRK NOT AVBL
FORT JOHNSON   NOT AVBL

...LAKE MOULTRIE...

CITY           SKY/WX    TMP DP  RH WIND       PRES   REMARKS
PINOPOLIS        N/A     39  34  81 NE7       30.18R WCI  34

...LAKE AND SUPPLEMENTAL COASTAL OBSERVATIONS...

STATION/POSITION TIME  TEMP    WIND        PRES    WAVE   SWELL
                       AIR SEA DIR/SP/G            HT/PER HT/PER/DIR
                 (UTC) (F)     (DEG/KT/KT) (MB)    (FT/S) (FT/S/D)
FORT PULASKI     1000   42 49   10/  6/  8 1023.9R
SAPELO ISLAND    1000   44      20/  7     1023.0R
UPR LAKE MARION  NOT AVBL
WINYAH BAY       NOT AVBL
LAKE MURRAY      1100   38      CALM  /  2 1023.7R
ACE BASIN NERRS  NOT AVBL


...C-MAN AND BUOY OBSERVATIONS...

STATION/POSITION TIME  TEMP    WIND        PRES    WAVE   SWELL
                       AIR SEA DIR/SP/G            HT/PER HT/PER/DIR
                 (UTC) (F)     (DEG/KT/KT) (MB)    (FT/S) (FT/S/D)
BUOY 41004       1050   46 65   10/ 14/ 19 1023.2R   5/ 9   3/ 9
BUOY 41008       1050   46 52   20/ 17/ 21 1022.5R   3/ 9   2/110/ 9
FOLLY BEACH CMAN 1100   39      20/  8/ 10 1024.8R
CAPERS NS BUOY   NOT AVBL
FRIPP NS BUOY    1000   42      20/ 14/ 16 1022.4R
5E ST. MARYS GA  1021      53                N/A     4/ 6   2/110/11


STATION/POSITION TIME  TEMP    WIND        PRES    WAVE   SWELL
                       AIR SEA DIR/SP/G            HT/PER HT/PER/DIR
                 (UTC) (F)     (DEG/KT/KT) (MB)    (FT/S) (FT/S/D)
FRYING PAN BUOY  1050   43 60   10/ 14/ 17 1024.4R   6/ 9   5/160/ 9
BUOY 41025       NOT AVBL
CAPE LOOKOUT NC  1100   34     360/  9/ 12 1024.3R
BUOY 41002       1050   62 70  330/ 12/ 16 1019.5R  10/ 8   8/240/ 8
BUOY 41010       1020   67 74   30/ 12/ 16 1018.2R
ST AUGUSTINE FL  1100   51      10/ 21/ 23 1021.7R

$$



USA.gov is the U.S. government's official web portal to all federal, state and local government web resources and services.